Wind_Speed
39 39 38 38 37 38 39 39 37 34 30 28 29 30 32 32 32 32 33 35 37 40 42 43 44 47 52 56 62 68 71 70 68 68 67 64 63 61
38 38 37 37 37 37 38 36 33 30 28 25 25 27 28 27 26 26 26 27 29 29 32 33 35 38 41 45 51 59 67 70 70 69 67 65 64 64
33 32 32 33 34 35 34 31 29 28 25 22 24 25 24 21 20 18 19 19 21 22 24 26 27 28 31 35 39 45 56 64 67 67 66 64 63 62
29 28 28 28 28 27 26 24 23 23 22 19 21 22 20 16 13 11 12 13 15 16 18 18 19 22 23 26 30 35 43 53 61 63 63 61 59 58
28 28 27 26 24 22 20 19 19 19 19 17 18 20 19 16 13 11 11 12 12 13 14 15 16 17 18 19 20 25 32 39 49 55 56 56 55 52
30 28 27 24 21 19 18 18 19 18 18 16 17 19 19 17 14 12 12 12 11 10 11 13 15 14 17 18 19 21 26 34 40 46 49 50 48 45
32 30 27 24 21 19 18 18 19 19 19 18 17 18 17 17 15 14 13 12 10 9 11 13 14 7 3 11 16 20 27 34 39 42 43 42 40 37
30 29 27 23 20 19 18 18 18 17 16 16 15 15 14 15 16 14 13 11 8 8 9 10 12 8 7 12 16 21 27 32 36 37 38 37 34 31
28 28 26 22 19 18 17 16 14 13 12 11 10 10 10 10 11 11 11 9 5 6 6 6 7 7 13 17 21 26 30 33 35 35 35 33 31 28
27 26 25 22 19 17 15 13 12 12 12 10 9 9 10 9 10 11 10 6 2 2 3 6 7 13 19 21 24 27 30 32 34 33 32 30 28 25
26 25 23 21 19 16 13 11 11 13 12 10 10 11 11 11 13 13 10 7 4 2 5 9 12 18 25 28 28 27 28 29 30 30 29 28 27 26
24 24 22 19 17 14 12 10 11 12 10 8 10 14 13 14 16 15 12 8 5 4 7 11 16 21 25 28 31 32 30 30 31 31 31 31 30 27
22 22 20 17 15 12 10 9 8 6 2 8 15 18 17 15 14 14 12 9 6 5 8 14 20 24 25 25 27 30 31 31 31 32 34 33 29 23
19 18 17 14 14 12 10 7 3 2 8 15 18 18 16 13 10 12 13 9 7 8 13 20 25 26 25 24 24 24 25 25 26 25 25 23 19 16
15 14 13 12 12 11 10 8 6 9 13 17 17 16 14 12 13 14 14 12 11 13 20 25 27 27 27 25 22 20 20 20 19 19 17 17 16 16
10 9 8 10 11 12 12 11 11 12 14 15 16 14 14 15 17 19 17 15 14 17 23 27 29 28 26 23 21 19 19 18 17 17 17 17 18 21
5 5 5 9 11 14 16 16 14 14 14 15 15 14 15 17 19 20 19 17 17 20 23 26 27 26 25 22 20 18 19 17 16 13 14 20 23 23
3 3 4 9 12 15 19 18 16 13 14 15 15 15 17 20 21 21 19 18 19 22 23 23 22 20 19 18 17 16 15 14 13 14 20 24 24 24
4 3 4 7 10 14 19 20 18 16 16 18 19 19 19 21 21 21 19 18 19 21 23 22 21 18 15 12 11 12 13 14 17 22 25 25 26 25
5 4 5 7 9 12 18 21 21 19 18 18 19 18 18 20 21 21 20 19 18 19 20 20 18 16 15 13 12 12 14 19 25 26 25 25 26 25
7 5 6 8 9 11 15 20 23 22 20 18 17 17 18 21 21 21 20 17 16 16 17 16 15 14 13 13 14 16 20 24 25 24 23 24 25 23
7 6 7 9 9 10 13 18 21 23 21 19 17 17 18 21 21 20 18 15 13 14 15 15 14 14 14 16 20 23 24 25 24 24 24 24 23 22
8 7 7 10 11 11 14 16 18 19 18 17 17 18 20 21 22 20 17 14 13 15 16 16 16 17 18 21 25 26 26 25 24 23 24 24 23 21
Wind_Direction
293 292 290 288 286 285 286 287 287 286 284 284 282 280 280 277 273 269 265 263 263 263 260 260 258 255 252 248 241 234 229 226 226 226 229 231 235 239
294 292 290 287 286 285 285 285 286 287 286 280 277 279 282 283 280 273 267 267 267 263 260 257 256 254 253 249 243 235 229 225 224 224 226 229 233 238
301 299 296 292 289 286 283 280 281 286 288 280 272 275 282 284 282 274 269 266 266 263 259 256 256 258 256 251 245 237 229 224 222 222 224 227 231 235
308 307 304 300 295 289 283 279 280 285 290 281 269 270 275 280 282 276 275 273 271 266 262 265 271 268 259 249 242 237 230 224 220 218 220 223 228 232
302 306 305 304 301 294 285 278 280 287 291 282 269 267 268 269 269 269 271 276 276 273 277 287 286 274 257 243 231 225 222 219 216 212 213 217 222 226
292 296 300 300 298 292 284 278 279 283 289 286 272 267 264 262 263 266 272 275 277 285 301 307 304 282 254 238 218 207 201 198 198 199 202 206 212 216
286 287 291 294 292 288 284 280 281 283 284 282 274 266 263 258 261 264 264 262 269 289 306 321 333 337 222 198 188 187 185 182 182 186 191 196 201 205
282 282 283 286 287 285 284 285 286 286 285 281 270 260 259 256 258 252 245 242 258 295 315 338 358 28 108 143 149 156 162 163 166 172 177 182 188 194
280 278 278 277 280 282 281 287 290 291 291 283 260 243 242 245 239 224 214 216 257 305 335 10 27 78 126 127 132 142 147 150 153 158 164 171 177 181
279 277 275 272 273 276 274 278 283 290 292 278 243 220 218 222 200 188 188 196 227 323 34 69 96 127 139 137 136 133 137 142 145 149 156 164 167 169
282 277 273 267 264 269 268 270 280 290 291 272 231 206 201 198 179 170 164 159 151 113 84 105 125 139 146 149 149 147 145 148 153 158 165 166 171 181
287 280 271 262 256 260 259 266 285 294 284 243 203 183 178 173 167 164 160 152 144 126 115 126 135 143 149 155 161 164 166 167 171 176 182 185 185 186
290 284 273 256 246 244 245 261 287 303 257 178 171 168 167 163 161 164 163 154 142 136 136 139 140 141 144 150 159 167 174 179 183 184 187 190 190 189
287 284 274 252 237 226 224 237 251 132 133 145 154 162 165 165 164 166 163 152 144 144 146 146 144 140 140 146 150 155 162 170 176 180 184 186 188 194
287 285 272 243 223 205 196 193 176 151 144 146 150 153 156 156 154 155 156 147 139 139 147 151 148 143 140 141 145 150 156 160 161 165 173 183 193 193
278 275 260 224 201 180 169 164 161 158 154 152 153 151 148 144 146 150 151 145 133 134 146 152 152 147 141 138 139 146 154 163 172 181 185 186 177 166
251 245 230 203 183 169 163 159 157 156 159 160 155 147 146 145 147 150 149 143 133 132 142 150 154 155 156 158 159 161 165 170 176 181 176 165 159 158
177 187 198 195 182 168 165 163 163 163 164 161 155 149 148 149 150 150 149 143 137 138 142 148 154 160 165 173 180 180 180 180 184 182 171 163 163 164
124 142 169 188 185 170 168 167 164 161 156 153 149 145 146 150 152 153 152 147 144 145 150 155 161 165 167 176 186 193 192 191 182 171 166 166 166 166
98 115 145 170 176 164 167 171 168 163 156 150 149 150 152 154 155 155 155 153 153 158 162 165 167 171 175 181 191 200 200 184 170 166 167 169 170 172
83 90 126 152 166 157 156 170 175 173 168 163 159 159 162 163 161 160 160 161 164 170 173 173 173 176 180 183 182 179 174 168 165 166 169 173 177 181
61 79 112 137 154 156 153 160 169 174 175 175 176 175 175 174 172 170 170 172 177 181 181 179 178 178 179 175 166 162 163 165 168 170 173 179 186 191
54 75 108 128 142 152 148 151 161 170 177 184 188 190 188 185 183 183 184 187 189 187 183 179 177 177 175 170 165 165 168 172 175 177 180 185 191 197
Height
5598 5595 5593 5590 5588 5586 5585 5583 5581 5580 5580 5578 5574 5570 5566 5563 5562 5561 5561 5562 5564 5566 5568 5570 5572 5574 5577 5582 5590 5602 5617 5631 5645 5658 5670 5680 5689 5696
5589 5586 5583 5580 5578 5576 5574 5572 5571 5570 5569 5569 5566 5562 5559 5556 5555 5553 5552 5554 5555 5556 5557 5559 5560 5562 5564 5568 5573 5582 5596 5611 5626 5641 5654 5665 5675 5682
5580 5577 5574 5571 5568 5566 5564 5563 5563 5561 5560 5561 5558 5556 5553 5551 5550 5548 5548 5548 5549 5550 5550 5551 5552 5553 5554 5556 5560 5567 5578 5592 5608 5624 5638 5652 5662 5670
5574 5570 5566 5563 5560 5557 5556 5556 5556 5555 5553 5553 5551 5549 5548 5547 5546 5546 5545 5545 5545 5545 5545 5545 5546 5545 5545 5547 5550 5556 5565 5577 5592 5608 5625 5640 5650 5659
5568 5564 5560 5557 5554 5551 5550 5550 5550 5549 5547 5546 5546 5544 5544 5543 5543 5543 5543 5543 5543 5542 5542 5541 5540 5539 5538 5540 5543 5548 5555 5566 5580 5598 5613 5627 5639 5650
5561 5558 5555 5552 5549 5547 5546 5545 5544 5543 5542 5541 5540 5540 5539 5539 5540 5541 5541 5541 5541 5540 5539 5538 5535 5532 5531 5533 5538 5543 5549 5559 5572 5587 5603 5618 5632 5644
5553 5551 5548 5546 5544 5542 5540 5539 5539 5538 5537 5536 5536 5535 5535 5536 5537 5538 5538 5539 5540 5539 5538 5535 5531 5527 5526 5528 5533 5540 5548 5558 5570 5584 5599 5615 5628 5640
5544 5542 5541 5540 5538 5536 5534 5534 5533 5532 5531 5531 5531 5531 5531 5532 5533 5535 5536 5538 5539 5539 5537 5535 5532 5529 5529 5531 5535 5542 5551 5561 5573 5586 5600 5613 5624 5634
5535 5534 5533 5532 5531 5530 5529 5528 5528 5527 5527 5526 5527 5528 5529 5530 5531 5533 5535 5538 5539 5539 5538 5537 5536 5534 5536 5538 5542 5548 5556 5565 5576 5588 5600 5612 5622 5631
5526 5525 5525 5525 5525 5524 5524 5524 5524 5524 5523 5523 5524 5525 5527 5529 5530 5533 5536 5538 5540 5540 5541 5541 5540 5541 5544 5547 5551 5557 5563 5571 5580 5591 5601 5612 5621 5630
5518 5517 5517 5518 5518 5519 5520 5520 5521 5520 5519 5519 5521 5523 5525 5528 5530 5534 5537 5539 5541 5542 5543 5544 5545 5548 5552 5556 5560 5566 5573 5580 5588 5597 5607 5615 5623 5631
5511 5509 5509 5511 5513 5514 5516 5517 5517 5516 5515 5515 5518 5522 5525 5528 5531 5534 5538 5540 5542 5544 5545 5547 5550 5554 5559 5563 5569 5575 5582 5588 5595 5603 5610 5617 5624 5631
5505 5504 5504 5505 5508 5511 5513 5514 5514 5513 5512 5514 5518 5523 5526 5530 5533 5536 5539 5542 5544 5546 5548 5550 5554 5559 5564 5569 5575 5582 5588 5594 5600 5606 5613 5618 5624 5630
5500 5499 5499 5501 5504 5507 5510 5512 5513 5513 5514 5516 5520 5524 5528 5532 5535 5538 5541 5544 5546 5548 5550 5553 5558 5563 5569 5575 5581 5586 5592 5597 5603 5608 5614 5619 5624 5629
5495 5495 5496 5498 5502 5505 5508 5511 5513 5514 5517 5520 5523 5526 5529 5532 5536 5540 5543 5546 5548 5550 5553 5557 5562 5567 5573 5578 5584 5589 5594 5599 5604 5609 5614 5619 5624 5629
5491 5493 5494 5496 5500 5503 5507 5510 5513 5515 5518 5522 5525 5528 5531 5534 5537 5541 5545 5549 5552 5554 5557 5562 5567 5572 5577 5582 5587 5591 5596 5601 5606 5611 5615 5620 5624 5629
5488 5491 5493 5496 5499 5502 5506 5510 5514 5517 5520 5523 5527 5530 5533 5536 5540 5544 5548 5552 5555 5558 5562 5567 5572 5576 5580 5585 5590 5594 5599 5604 5608 5612 5616 5620 5625 5630
5488 5490 5492 5495 5498 5502 5506 5510 5515 5518 5521 5524 5528 5532 5535 5539 5543 5547 5551 5555 5559 5562 5566 5571 5575 5580 5584 5588 5592 5595 5600 5604 5608 5612 5616 5621 5627 5632
5490 5491 5493 5495 5498 5502 5506 5511 5516 5520 5523 5526 5530 5534 5538 5542 5546 5550 5554 5558 5561 5565 5569 5572 5577 5581 5585 5589 5593 5596 5600 5604 5608 5613 5618 5623 5628 5633
5492 5493 5494 5497 5500 5503 5507 5511 5517 5521 5525 5529 5533 5537 5541 5545 5548 5552 5556 5560 5564 5567 5571 5574 5578 5582 5586 5590 5593 5596 5600 5604 5609 5614 5619 5624 5629 5634
5495 5495 5496 5498 5502 5505 5508 5512 5517 5522 5527 5531 5535 5539 5543 5547 5551 5555 5558 5562 5566 5569 5572 5576 5579 5583 5586 5590 5593 5596 5601 5606 5611 5616 5621 5626 5631 5635
5498 5498 5498 5500 5503 5507 5510 5514 5518 5522 5527 5532 5536 5540 5544 5548 5552 5556 5560 5563 5566 5569 5573 5576 5580 5583 5586 5589 5593 5598 5604 5609 5613 5617 5621 5627 5631 5635
5501 5500 5501 5503 5506 5509 5513 5516 5519 5523 5527 5531 5535 5539 5544 5548 5553 5557 5560 5564 5567 5570 5574 5577 5580 5583 5587 5591 5595 5600 5605 5610 5614 5618 5622 5627 5631 5634